460  
ASUS45 KREV 250310  
RWRNV  
NEVADA REGIONAL WEATHER ROUNDUP  
NATIONAL WEATHER SERVICE RENO NV  
800 PM PDT SUN MAY 24 2020  
 
NOTE: "FAIR" INDICATES FEW OR NO CLOUDS BELOW 12,000 FEET WITH NO  
SIGNIFICANT WEATHER AND/OR S TO VISIBILITY
.  
 
NVZ001-003-004-250400-  
WESTERN NEVADA  
 
CITY SKY/WX TMP DP RH WIND PRES REMARKS
 
RENO MOCLDY 72 23 16 N8 30.08R  
CARSON CITY FAIR 72 21 15 NW6 30.10R  
MINDEN FAIR 70 25 18 N10G17 30.09R  
SLIDE MTN N/A 46 28 49 NE12 N/A  
PYRAMID LAKE N/A 72 N/A N/A W6 N/A  
FALLON FAIR 72 22 15 SE3 30.05S  
LOVELOCK FAIR 73 27 18 NE7 30.05R  
HAWTHORNE CLEAR 70 28 21 NW8 30.08R  

 
 
NVZ002-CAZ072-073-250400-  
NORTHERN AND CENTRAL SIERRA  
 
CITY SKY/WX TMP DP RH WIND PRES REMARKS
 
S. LAKE TAHOE FAIR 56 35 45 CALM 30.17R  
TRUCKEE FAIR 63 28 27 N3 30.17R  
SQUAW VLY 8000 N/A 52 36 54 N6 N/A  
BLUE CANYON FAIR 62 41 46 N7 30.15R  
MAMMOTH LAKES FAIR 59 19 21 CALM 30.20R  
BRIDGEPORT N/A 61 28 29 N8 N/A  

 
 
NVZ030-031-036-250400-  
NORTHERN NEVADA  
 
CITY SKY/WX TMP DP RH WIND PRES REMARKS
 
ELKO FAIR 62 29 28 NE7 30.12S  
WINNEMUCCA FAIR 70 26 19 NE7 30.08R  
BATTLE MOUNTAI FAIR 70 28 21 NW5 30.10R  
WENDOVER MOCLDY 64 26 23 N10 30.10R  

 
 
NVZ035-037-250400-  
CENTRAL NEVADA  
 
CITY SKY/WX TMP DP RH WIND PRES REMARKS
 
ELY FAIR 55 19 24 N10 30.15R  
EUREKA N/A 57 28 33 NE7 30.15R  

 
 
NVZ013-014-250400-  
SOUTH CENTRAL NEVADA  
 
CITY SKY/WX TMP DP RH WIND PRES REMARKS
 
TONOPAH FAIR 68 25 19 NW14 30.09R  

 
 
NVZ017-020-022-250400-  
SOUTHERN NEVADA  
 
CITY SKY/WX TMP DP RH WIND PRES REMARKS
 
LAS VEGAS FAIR 83 18 9 NE3 29.86S  
N. LAS VEGAS FAIR 85 20 9 NW5 29.86R  
NELLIS AFB NOT AVBL  
HENDERSON N/A N/A N/A N/A MISG N/A  
MERCURY FAIR 78 21 12 E6 29.93R  

 
 
 
CLICK HERE TO GO TO PREVIOUS BULLETINS.

The Nexlab NV Page Main Text Page